Time,TemperatureF,DewpointF,PressureIn,WindDirection,WindDirectionDegrees,WindSpeedMPH,WindSpeedGustMPH,Humidity,HourlyPrecipIn,Conditions,Clouds,dailyrainin,SoftwareType,DateUTC
2013-09-26 00:14:00,74.0,70.0,29.84,South,173,3.0,5.0,87,-99.99,,,-99.99,,2013-09-26 04:14:00,
2013-09-26 00:24:00,74.0,70.0,29.84,South,173,3.0,5.0,87,-99.99,,,-99.99,,2013-09-26 04:24:00,
2013-09-26 00:44:00,74.0,70.0,29.84,South,170,4.0,5.0,88,-99.99,,,-99.99,,2013-09-26 04:44:00,
2013-09-26 00:54:00,74.0,70.0,29.84,SSE,147,2.0,3.0,88,-99.99,,,-99.99,,2013-09-26 04:54:00,
2013-09-26 01:13:00,73.0,70.0,29.84,South,182,1.0,3.0,89,-99.99,,,-99.99,,2013-09-26 05:13:00,
2013-09-26 01:52:00,74.0,71.0,29.83,SSW,200,4.0,6.0,90,-99.99,,,-99.99,,2013-09-26 05:52:00,
2013-09-26 02:13:00,74.0,71.0,29.83,SSW,197,5.0,8.0,89,-99.99,,,-99.99,,2013-09-26 06:13:00,
2013-09-26 02:54:00,74.0,71.0,29.82,SSW,203,5.0,8.0,88,-99.99,,,-99.99,,2013-09-26 06:54:00,
2013-09-26 03:12:00,74.0,71.0,29.82,SSW,205,6.0,10.0,89,-99.99,,,-99.99,,2013-09-26 07:12:00,
2013-09-26 03:53:00,74.0,71.0,29.81,SSW,207,6.0,11.0,88,-99.99,,,-99.99,,2013-09-26 07:53:00,
2013-09-26 04:11:00,74.0,71.0,29.80,SSW,210,6.0,8.0,89,-99.99,,,-99.99,,2013-09-26 08:11:00,
2013-09-26 04:52:00,74.0,71.0,29.80,SW,224,5.0,8.0,89,-99.99,,,-99.99,,2013-09-26 08:52:00,
2013-09-26 05:11:00,74.0,71.0,29.80,SW,229,5.0,8.0,90,-99.99,,,-99.99,,2013-09-26 09:11:00,
2013-09-26 05:22:00,74.0,71.0,29.80,SW,223,6.0,9.0,90,-99.99,,,-99.99,,2013-09-26 09:22:00,
2013-09-26 05:33:00,74.0,71.0,29.80,SW,223,6.0,9.0,90,-99.99,,,-99.99,,2013-09-26 09:33:00,
2013-09-26 05:54:00,75.0,72.0,29.80,SW,233,5.0,8.0,90,-99.99,,,-99.99,,2013-09-26 09:54:00,
2013-09-26 06:12:00,75.0,72.0,29.80,SW,217,5.0,7.0,90,-99.99,,,-99.99,,2013-09-26 10:12:00,
2013-09-26 06:30:00,76.0,73.0,29.80,WSW,241,6.0,11.0,90,-99.99,,,-99.99,,2013-09-26 10:30:00,
2013-09-26 06:53:00,75.0,73.0,29.80,SW,235,6.0,10.0,90,-99.99,,,-99.99,,2013-09-26 10:53:00,
2013-09-26 07:12:00,76.0,73.0,29.80,WSW,241,6.0,11.0,90,-99.99,,,-99.99,,2013-09-26 11:12:00,
2013-09-26 07:22:00,76.0,73.0,29.80,WSW,241,6.0,11.0,90,-99.99,,,-99.99,,2013-09-26 11:22:00,
2013-09-26 07:52:00,75.0,73.0,29.81,WSW,240,5.0,9.0,91,-99.99,,,-99.99,,2013-09-26 11:52:00,
2013-09-26 08:02:00,75.0,73.0,29.81,WSW,240,5.0,9.0,91,-99.99,,,-99.99,,2013-09-26 12:02:00,
2013-09-26 08:22:00,76.0,73.0,29.82,WSW,245,6.0,8.0,91,-99.99,,,-99.99,,2013-09-26 12:22:00,
2013-09-26 08:32:00,76.0,73.0,29.82,WSW,245,6.0,8.0,91,-99.99,,,-99.99,,2013-09-26 12:32:00,
2013-09-26 08:52:00,77.0,74.0,29.83,SW,235,7.0,10.0,90,-99.99,,,-99.99,,2013-09-26 12:52:00,
2013-09-26 09:12:00,78.0,75.0,29.83,WSW,239,7.0,13.0,88,-99.99,,,-99.99,,2013-09-26 13:12:00,
2013-09-26 09:52:00,81.0,75.0,29.85,West,263,9.0,15.0,82,-99.99,,,-99.99,,2013-09-26 13:52:00,
2013-09-26 10:11:00,81.0,75.0,29.85,WSW,258,8.0,12.0,82,-99.99,,,-99.99,,2013-09-26 14:11:00,
2013-09-26 10:42:00,82.0,76.0,29.85,WSW,254,9.0,14.0,80,-99.99,,,-99.99,,2013-09-26 14:42:00,
2013-09-26 10:52:00,83.0,76.0,29.86,WSW,253,11.0,16.0,77,-99.99,,,-99.99,,2013-09-26 14:52:00,
2013-09-26 11:11:00,84.0,75.0,29.86,West,261,10.0,16.0,74,-99.99,,,-99.99,,2013-09-26 15:11:00,
2013-09-26 11:54:00,84.0,73.0,29.86,West,263,10.0,17.0,70,-99.99,,,-99.99,,2013-09-26 15:54:00,
2013-09-26 12:13:00,84.0,73.0,29.86,West,272,6.0,10.0,70,-99.99,,,-99.99,,2013-09-26 16:13:00,
2013-09-26 12:54:00,77.0,73.0,29.85,West,273,5.0,7.0,86,-99.99,,,-99.99,,2013-09-26 16:54:00,
2013-09-26 13:12:00,80.0,74.0,29.85,West,267,8.0,11.0,82,-99.99,,,-99.99,,2013-09-26 17:12:00,
2013-09-26 13:53:00,85.0,74.0,29.83,West,259,11.0,16.0,67,-99.99,,,-99.99,,2013-09-26 17:53:00,
2013-09-26 14:13:00,87.0,75.0,29.83,WSW,257,10.0,15.0,67,-99.99,,,-99.99,,2013-09-26 18:13:00,
2013-09-26 14:52:00,84.0,75.0,29.81,WNW,282,9.0,12.0,73,-99.99,,,-99.99,,2013-09-26 18:52:00,
2013-09-26 15:12:00,87.0,75.0,29.81,WNW,282,9.0,14.0,66,-99.99,,,-99.99,,2013-09-26 19:12:00,
2013-09-26 15:52:00,88.0,73.0,29.79,NW,307,11.0,15.0,61,-99.99,,,-99.99,,2013-09-26 19:52:00,
2013-09-26 16:12:00,87.0,73.0,29.79,NW,309,10.0,12.0,61,-99.99,,,-99.99,,2013-09-26 20:12:00,
2013-09-26 16:23:00,87.0,72.0,29.79,WNW,299,9.0,17.0,59,-99.99,,,-99.99,,2013-09-26 20:23:00,
2013-09-26 16:32:00,87.0,72.0,29.79,WNW,299,9.0,17.0,59,-99.99,,,-99.99,,2013-09-26 20:32:00,
2013-09-26 16:53:00,89.0,68.0,29.80,NW,309,9.0,16.0,49,-99.99,,,-99.99,,2013-09-26 20:53:00,
2013-09-26 17:12:00,89.0,66.0,29.80,NW,304,10.0,16.0,46,-99.99,,,-99.99,,2013-09-26 21:12:00,
2013-09-26 17:54:00,89.0,63.0,29.81,NW,308,11.0,17.0,42,-99.99,,,-99.99,,2013-09-26 21:54:00,
2013-09-26 18:14:00,88.0,62.0,29.81,NW,312,9.0,14.0,42,-99.99,,,-99.99,,2013-09-26 22:14:00,
2013-09-26 18:54:00,87.0,58.0,29.81,NW,306,7.0,12.0,37,-99.99,,,-99.99,,2013-09-26 22:54:00,
2013-09-26 19:12:00,86.0,59.0,29.81,NW,304,6.0,9.0,40,-99.99,,,-99.99,,2013-09-26 23:12:00,
2013-09-26 19:23:00,85.0,60.0,29.82,West,280,5.0,8.0,42,-99.99,,,-99.99,,2013-09-26 23:23:00,
2013-09-26 19:34:00,85.0,60.0,29.82,West,280,5.0,8.0,42,-99.99,,,-99.99,,2013-09-26 23:34:00,
2013-09-26 19:53:00,81.0,62.0,29.82,South,173,5.0,7.0,51,-99.99,,,-99.99,,2013-09-26 23:53:00,
2013-09-26 20:52:00,80.0,62.0,29.83,NW,307,5.0,7.0,53,-99.99,,,-99.99,,2013-09-27 00:52:00,
2013-09-26 21:12:00,79.0,65.0,29.85,ENE,62,7.0,11.0,62,-99.99,,,-99.99,,2013-09-27 01:12:00,
2013-09-26 21:52:00,76.0,70.0,29.86,NE,35,4.0,6.0,79,-99.99,,,-99.99,,2013-09-27 01:52:00,
2013-09-26 22:12:00,76.0,70.0,29.86,NE,45,4.0,6.0,82,-99.99,,,-99.99,,2013-09-27 02:12:00,
2013-09-26 22:22:00,76.0,70.0,29.87,NE,35,6.0,10.0,82,-99.99,,,-99.99,,2013-09-27 02:22:00,
2013-09-26 22:32:00,76.0,70.0,29.87,NE,35,6.0,10.0,82,-99.99,,,-99.99,,2013-09-27 02:32:00,
2013-09-26 22:53:00,75.0,70.0,29.87,NE,41,4.0,6.0,82,-99.99,,,-99.99,,2013-09-27 02:53:00,
2013-09-26 23:12:00,75.0,70.0,29.87,NE,36,4.0,6.0,83,-99.99,,,-99.99,,2013-09-27 03:12:00,
2013-09-26 23:22:00,75.0,70.0,29.87,NE,36,4.0,6.0,83,-99.99,,,-99.99,,2013-09-27 03:22:00,
2013-09-26 23:55:00,74.0,69.0,29.88,ESE,105,7.0,12.0,83,-99.99,,,-99.99,,2013-09-27 03:55:00,